• In Belarus
  • List of Countries
  • For 7 days
  • Water Temperature
  • Satellite Maps
  • Weather Map
  • Weather Widgets
  • user-avatar
    Login

    Hourly Weather Pernik

    Today, 24 November, Friday

    Time Temperature Precipitation Wind Pressure Humidity
    00:00 +5°C° 0 mm 1 mps 692 mmHg 70%
    01:00 +5°C° 0 mm 1 mps 693 mmHg 69%
    02:00 +5°C° 0 mm 1 mps 693 mmHg 69%
    03:00 +4°C° 0 mm 1 mps 692 mmHg 68%
    04:00 +4°C° 0 mm 1 mps 692 mmHg 68%
    05:00 +4°C° 0 mm 1 mps 692 mmHg 68%
    06:00 +4°C° 0 mm 1 mps 692 mmHg 67%
    07:00 +4°C° 0 mm 1 mps 692 mmHg 67%
    08:00 +4°C° 0 mm 1 mps 692 mmHg 67%
    09:00 +6°C° 0 mm 1 mps 693 mmHg 61%
    10:00 +7°C° 0 mm 0 mps 693 mmHg 55%
    11:00 +10°C° 0 mm 0 mps 694 mmHg 49%
    12:00 +10°C° 0 mm 0 mps 694 mmHg 47%
    13:00 +11°C° 0 mm 0 mps 693 mmHg 46%
    14:00 +12°C° 0 mm 0 mps 693 mmHg 44%
    15:00 +10°C° 0 mm 0 mps 693 mmHg 50%
    16:00 +8°C° 0 mm 0 mps 693 mmHg 56%
    17:00 +7°C° 0 mm 0 mps 692 mmHg 63%
    18:00 +6°C° 0 mm 0 mps 693 mmHg 65%
    19:00 +5°C° 0 mm 0 mps 693 mmHg 67%
    20:00 +5°C° 0 mm 0 mps 693 mmHg 69%
    21:00 +4°C° 0 mm 0 mps 693 mmHg 70%
    22:00 +4°C° 0 mm 0 mps 693 mmHg 71%
    23:00 +4°C° 0 mm 0 mps 693 mmHg 72%

    Tomorrow, 25 November, Saturday

    Time Temperature Precipitation Wind Pressure Humidity
    00:00 +4°C° 0 mm 0 mps 693 mmHg 73%
    01:00 +3°C° 0 mm 0 mps 693 mmHg 73%
    02:00 +4°C° 0 mm 1 mps 693 mmHg 74%
    03:00 +4°C° 0 mm 1 mps 693 mmHg 74%
    04:00 +4°C° 0 mm 1 mps 693 mmHg 74%
    05:00 +4°C° 0 mm 1 mps 692 mmHg 74%
    06:00 +4°C° 0 mm 1 mps 693 mmHg 74%
    07:00 +4°C° 0 mm 1 mps 693 mmHg 74%
    08:00 +4°C° 0 mm 1 mps 693 mmHg 74%
    09:00 +6°C° 0 mm 1 mps 693 mmHg 67%
    10:00 +8°C° 0 mm 1 mps 693 mmHg 61%
    11:00 +10°C° 0 mm 1 mps 693 mmHg 54%
    12:00 +9°C° 0 mm 2 mps 693 mmHg 52%
    13:00 +10°C° 0 mm 2 mps 692 mmHg 50%
    14:00 +12°C° 0 mm 2 mps 692 mmHg 48%
    15:00 +9°C° 0 mm 2 mps 691 mmHg 55%
    16:00 +8°C° 0 mm 2 mps 691 mmHg 62%
    17:00 +7°C° 0 mm 1 mps 691 mmHg 69%
    18:00 +6°C° 0 mm 2 mps 691 mmHg 73%
    19:00 +5°C° 0 mm 2 mps 691 mmHg 77%
    20:00 +4°C° 0 mm 2 mps 691 mmHg 81%
    21:00 +4°C° 0 mm 2 mps 691 mmHg 82%
    22:00 +4°C° 0 mm 2 mps 691 mmHg 84%
    23:00 +3°C° 0 mm 2 mps 690 mmHg 86%

    Day after tomorrow, 26 November, Sunday

    Time Temperature Precipitation Wind Pressure Humidity
    00:00 +4°C° 0 mm 1 mps 690 mmHg 86%
    01:00 +4°C° 0 mm 1 mps 690 mmHg 87%
    02:00 +4°C° 0 mm 1 mps 690 mmHg 88%
    03:00 +4°C° 0 mm 1 mps 690 mmHg 88%
    04:00 +4°C° 0 mm 1 mps 690 mmHg 89%
    05:00 +4°C° 0 mm 1 mps 689 mmHg 89%
    06:00 +4°C° 0 mm 1 mps 689 mmHg 88%
    07:00 +4°C° 0 mm 1 mps 689 mmHg 88%
    08:00 +4°C° 0 mm 1 mps 690 mmHg 87%
    09:00 +5°C° 0 mm 2 mps 690 mmHg 80%
    10:00 +7°C° 0 mm 2 mps 690 mmHg 72%
    11:00 +9°C° 0 mm 2 mps 690 mmHg 65%
    12:00 +9°C° 0 mm 2 mps 689 mmHg 62%
    13:00 +10°C° 0 mm 2 mps 689 mmHg 60%
    14:00 +12°C° 0 mm 2 mps 688 mmHg 57%
    15:00 +10°C° 0.1 mm 2 mps 688 mmHg 63%
    16:00 +10°C° 0.1 mm 1 mps 688 mmHg 69%
    17:00 +9°C° 0.1 mm 1 mps 687 mmHg 75%
    18:00 +8°C° 0.1 mm 1 mps 687 mmHg 78%
    19:00 +8°C° 0.1 mm 1 mps 687 mmHg 80%
    20:00 +7°C° 0.1 mm 1 mps 687 mmHg 83%
    21:00 +7°C° 0.1 mm 1 mps 687 mmHg 83%
    22:00 +7°C° 0.1 mm 1 mps 687 mmHg 83%
    23:00 +7°C° 0.1 mm 1 mps 687 mmHg 84%

    27 November, Monday

    Time Temperature Precipitation Wind Pressure Humidity
    00:00 +6°C° 0.3 mm 1 mps 686 mmHg 85%
    01:00 +6°C° 0.3 mm 1 mps 686 mmHg 86%
    02:00 +6°C° 0.3 mm 1 mps 686 mmHg 87%
    03:00 +5°C° 0.7 mm 0 mps 686 mmHg 88%
    04:00 +5°C° 0.7 mm 0 mps 686 mmHg 89%
    05:00 +5°C° 0.7 mm 0 mps 686 mmHg 89%
    06:00 +6°C° 1.3 mm 1 mps 686 mmHg 90%
    07:00 +5°C° 1.3 mm 1 mps 686 mmHg 91%
    08:00 +4°C° 1.3 mm 2 mps 686 mmHg 92%
    09:00 +4°C° 1.5 mm 2 mps 686 mmHg 92%
    10:00 +3°C° 1.5 mm 3 mps 686 mmHg 91%
    11:00 +3°C° 1.5 mm 3 mps 687 mmHg 90%
    12:00 +3°C° 1 mm 3 mps 686 mmHg 89%
    13:00 +1°C° 1 mm 4 mps 686 mmHg 87%
    14:00 +1°C° 1 mm 4 mps 686 mmHg 86%
    15:00 0°C° 0.6 mm 4 mps 686 mmHg 86%
    16:00 -1°C° 0.6 mm 4 mps 686 mmHg 86%
    17:00 -1°C° 0.6 mm 4 mps 686 mmHg 87%
    18:00 -2°C° 0.5 mm 4 mps 687 mmHg 87%
    19:00 -2°C° 0.5 mm 4 mps 687 mmHg 87%
    20:00 -2°C° 0.5 mm 4 mps 687 mmHg 87%
    21:00 -3°C° 0.5 mm 4 mps 687 mmHg 88%
    22:00 -3°C° 0.5 mm 4 mps 687 mmHg 88%
    23:00 -2°C° 0.5 mm 3 mps 688 mmHg 88%

    28 November, Tuesday

    Time Temperature Precipitation Wind Pressure Humidity
    00:00 -2°C° 0.4 mm 3 mps 687 mmHg 88%
    01:00 -2°C° 0.4 mm 3 mps 687 mmHg 88%
    02:00 -2°C° 0.4 mm 3 mps 687 mmHg 88%
    03:00 -2°C° 0.2 mm 3 mps 687 mmHg 88%
    04:00 -2°C° 0.2 mm 3 mps 687 mmHg 88%
    05:00 -4°C° 0.2 mm 3 mps 687 mmHg 88%
    06:00 -4°C° 0.2 mm 3 mps 688 mmHg 88%
    07:00 -3°C° 0.2 mm 2 mps 688 mmHg 88%
    08:00 -3°C° 0.2 mm 2 mps 688 mmHg 88%
    09:00 -2°C° 0.1 mm 3 mps 688 mmHg 86%
    10:00 -2°C° 0.1 mm 3 mps 689 mmHg 84%
    11:00 -1°C° 0.1 mm 3 mps 689 mmHg 83%
    12:00 -1°C° 0.1 mm 3 mps 689 mmHg 82%
    13:00 -1°C° 0.1 mm 3 mps 688 mmHg 81%
    14:00 -1°C° 0.1 mm 3 mps 688 mmHg 81%
    15:00 -1°C° 0 mm 2 mps 688 mmHg 83%
    16:00 -2°C° 0 mm 2 mps 688 mmHg 85%
    17:00 -2°C° 0 mm 2 mps 688 mmHg 87%
    18:00 -2°C° 0.1 mm 2 mps 689 mmHg 87%
    19:00 -3°C° 0.1 mm 2 mps 689 mmHg 88%
    20:00 -3°C° 0.1 mm 2 mps 689 mmHg 89%
    21:00 -1°C° 0 mm 1 mps 689 mmHg 89%
    22:00 -1°C° 0 mm 1 mps 689 mmHg 89%
    23:00 -1°C° 0 mm 1 mps 690 mmHg 90%

    29 November, Wednesday

    Time Temperature Precipitation Wind Pressure Humidity
    00:00 -2°C° 0 mm 1 mps 690 mmHg 90%
    01:00 -2°C° 0 mm 1 mps 689 mmHg 90%
    02:00 -2°C° 0 mm 1 mps 689 mmHg 90%
    03:00 -2°C° 0 mm 1 mps 689 mmHg 89%
    04:00 -2°C° 0 mm 1 mps 689 mmHg 88%
    05:00 -2°C° 0 mm 1 mps 689 mmHg 88%
    06:00 -2°C° 0 mm 1 mps 689 mmHg 87%
    07:00 -2°C° 0 mm 1 mps 689 mmHg 86%
    08:00 -2°C° 0 mm 1 mps 689 mmHg 85%
    09:00 0°C° 0 mm 1 mps 690 mmHg 82%
    10:00 +2°C° 0 mm 1 mps 690 mmHg 78%
    11:00 +4°C° 0 mm 1 mps 690 mmHg 74%
    12:00 +5°C° 0 mm 1 mps 690 mmHg 74%
    13:00 +5°C° 0 mm 1 mps 690 mmHg 73%
    14:00 +6°C° 0 mm 1 mps 690 mmHg 72%
    15:00 +5°C° 0 mm 1 mps 689 mmHg 75%
    16:00 +3°C° 0 mm 1 mps 689 mmHg 79%
    17:00 +2°C° 0 mm 1 mps 689 mmHg 82%
    18:00 +2°C° 0 mm 1 mps 689 mmHg 82%
    19:00 +1°C° 0 mm 1 mps 689 mmHg 82%
    20:00 0°C° 0 mm 1 mps 690 mmHg 82%
    21:00 0°C° 0 mm 1 mps 690 mmHg 81%
    22:00 0°C° 0 mm 1 mps 690 mmHg 80%
    23:00 0°C° 0 mm 1 mps 690 mmHg 80%
    Show more